DW6485 Weather Reports


time (UTC)temp
F
wind
direction
speed
knots
gust
knots
rain 1hr
in
rain 24hr
in
rain mn
in
humidity
%
barometer
mb
20260503005232 70 221 7.0 7.0 0.00 0.00 0.00 12 1017.5
20260503004727 70 214 3.5 6.1 0.00 0.00 0.00 13 1017.5
20260503004226 70 171 4.3 7.0 0.00 0.00 0.00 13 1017.5
20260503003723 70 158 6.1 8.7 0.00 0.00 0.00 12 1017.5
20260503003220 70 167 6.1 8.7 0.00 0.00 0.00 12 1017.5
20260503002716 71 101 2.6 4.3 0.00 0.00 0.00 13 1017.5
20260503002214 71 169 2.6 4.3 0.00 0.00 0.00 13 1017.7
20260503001709 71 30 0.9 2.6 0.00 0.00 0.00 13 1017.6
20260503001206 70 83 2.6 3.5 0.00 0.00 0.00 13 1017.5
20260503000704 70 67 3.5 6.1 0.00 0.00 0.00 12 1017.7
20260503000203 71 96 5.2 8.7 0.00 0.00 0.00 12 1017.6
20260502235658 71 116 3.5 7.0 0.00 0.00 0.00 12 1018.0
20260502235156 71 108 4.3 7.0 0.00 0.00 0.00 13 1017.6
20260502234652 71 111 7.8 10.4 0.00 0.00 0.00 12 1017.7
20260502234149 71 147 7.0 10.4 0.00 0.00 0.00 12 1017.8
20260502233645 71 180 2.6 8.7 0.00 0.00 0.00 12 1017.8
20260502233142 71 108 1.7 2.6 0.00 0.00 0.00 12 1018.1
20260502232637 71 173 3.5 4.3 0.00 0.00 0.00 12 1017.8
20260502232135 71 172 6.1 10.4 0.00 0.00 0.00 12 1018.1
20260502231632 72 174 5.2 12.2 0.00 0.00 0.00 12 1017.8
20260502231130 72 199 12.2 13.0 0.00 0.00 0.00 11 1017.8
20260502230628 72 197 10.4 12.2 0.00 0.00 0.00 11 1018.0
20260502230126 73 160 10.4 12.2 0.00 0.00 0.00 11 1018.2
20260502225621 73 178 15.6 18.2 0.00 0.00 0.00 11 1018.1
20260502225118 73 191 3.5 7.0 0.00 0.00 0.00 10 1018.0
20260502224615 73 208 8.7 13.9 0.00 0.00 0.00 10 1018.3
20260502224111 72 202 11.3 13.9 0.00 0.00 0.00 10 1018.3
20260502223609 71 165 6.1 9.6 0.00 0.00 0.00 10 1018.4
20260502223108 71 150 13.0 15.6 0.00 0.00 0.00 10 1018.7
20260502222605 71 231 14.8 19.1 0.00 0.00 0.00 10 1018.4
20260502222101 71 157 10.4 18.2 0.00 0.00 0.00 12 1018.5
20260502221556 71 136 9.6 13.9 0.00 0.00 0.00 12 1018.9
20260502221054 71 71 9.6 10.4 0.00 0.00 0.00 12 1018.8
20260502220549 71 69 6.1 8.7 0.00 0.00 0.00 12 1018.5
20260502220046 72 83 6.1 12.2 0.00 0.00 0.00 12 1018.8
20260502215544 72 150 9.6 20.0 0.00 0.00 0.00 11 1018.8
20260502215040 73 175 8.7 9.6 0.00 0.00 0.00 12 1018.7
20260502214537 71 173 5.2 13.0 0.00 0.00 0.00 12 1018.9
20260502214035 72 180 6.1 9.6 0.00 0.00 0.00 13 1019.2
20260502213532 71 198 11.3 13.0 0.00 0.00 0.00 12 1019.4
20260502213030 72 166 7.8 10.4 0.00 0.00 0.00 12 1019.2
20260502212528 72 301 5.2 7.0 0.00 0.00 0.00 12 1019.2
20260502212026 71 252 7.8 8.7 0.00 0.00 0.00 12 1019.4
20260502211521 71 184 12.2 15.6 0.00 0.00 0.00 12 1019.5
20260502211018 72 177 8.7 13.0 0.00 0.00 0.00 12 1019.5
20260502210515 71 204 3.5 6.1 0.00 0.00 0.00 13 1019.6
20260502210012 70 81 3.5 10.4 0.00 0.00 0.00 13 1019.5
20260502205509 69 155 4.3 6.1 0.00 0.00 0.00 14 1019.7
20260502205006 70 131 5.2 13.0 0.00 0.00 0.00 14 1019.7
20260502204503 71 141 9.6 12.2 0.00 0.00 0.00 14 1019.6
20260502204001 69 146 7.8 10.4 0.00 0.00 0.00 14 1019.8
20260502203457 70 142 11.3 18.2 0.00 0.00 0.00 14 1019.9
20260502202954 70 146 8.7 13.0 0.00 0.00 0.00 14 1019.9
20260502202450 71 162 8.7 13.0 0.00 0.00 0.00 14 1019.9
20260502201949 71 176 13.0 15.6 0.00 0.00 0.00 14 1019.9
20260502201444 70 181 13.0 13.9 0.00 0.00 0.00 14 1020.1
20260502200941 71 103 6.1 8.7 0.00 0.00 0.00 15 1019.8
20260502200437 70 162 13.0 15.6 0.00 0.00 0.00 15 1019.9
20260502195935 70 158 11.3 18.2 0.00 0.00 0.00 15 1019.9
20260502195432 70 131 4.3 12.2 0.00 0.00 0.00 15 1020.1
20260502194928 71 162 11.3 13.9 0.00 0.00 0.00 15 1020.3
20260502194425 70 152 5.2 8.7 0.00 0.00 0.00 15 1020.2
20260502193921 70 160 3.5 7.0 0.00 0.00 0.00 16 1020.3
20260502193418 70 183 9.6 12.2 0.00 0.00 0.00 16 1020.3
20260502192913 69 49 7.8 12.2 0.00 0.00 0.00 17 1020.5
20260502192411 69 99 9.6 13.9 0.00 0.00 0.00 17 1020.7
20260502191908 70 107 7.8 13.9 0.00 0.00 0.00 17 1020.7
20260502191406 68 140 11.3 13.9 0.00 0.00 0.00 18 1020.8
20260502190903 69 138 14.8 16.5 0.00 0.00 0.00 17 1020.9
20260502190400 69 75 9.6 13.9 0.00 0.00 0.00 18 1020.8
20260502185856 67 209 2.6 9.6 0.00 0.00 0.00 18 1020.9
20260502185351 68 96 9.6 13.0 0.00 0.00 0.00 18 1021.0
20260502184849 67 62 3.5 8.7 0.00 0.00 0.00 18 1021.1
20260502184344 68 166 8.7 12.2 0.00 0.00 0.00 18 1021.2
20260502183841 67 324 0.9 12.2 0.00 0.00 0.00 19 1021.5
20260502183337 67 178 8.7 20.0 0.00 0.00 0.00 19 1021.5
20260502182832 67 112 11.3 13.0 0.00 0.00 0.00 18 1021.6
20260502182328 66 59 1.7 4.3 0.00 0.00 0.00 19 1021.5
20260502181825 65 144 10.4 10.4 0.00 0.00 0.00 19 1021.8
20260502181324 66 126 7.0 9.6 0.00 0.00 0.00 19 1021.7
20260502180821 66 116 4.3 7.0 0.00 0.00 0.00 19 1021.8
20260502180319 65 62 2.6 6.1 0.00 0.00 0.00 18 1021.9
20260502170232 60 28 4.3 4.3 0.00 0.00 0.00 22 1022.5
20260502164219 59 37 3.5 7.0 0.00 0.00 0.00 22 1022.6
20260502163714 59 187 2.6 4.3 0.00 0.00 0.00 22 1022.6
20260502163211 57 65 0.9 3.5 0.00 0.00 0.00 23 1022.8
20260502162708 57 83 4.3 7.0 0.00 0.00 0.00 23 1022.6
20260502162205 56 35 5.2 6.1 0.00 0.00 0.00 23 1022.9
20260502161702 55 77 6.1 7.0 0.00 0.00 0.00 24 1022.8
20260502161158 54 109 4.3 4.3 0.00 0.00 0.00 25 1022.9
20260502160657 54 79 2.6 4.3 0.00 0.00 0.00 25 1022.9
20260502160155 53 114 4.3 6.1 0.00 0.00 0.00 25 1022.8
20260502152109 46 81 4.3 6.1 0.00 0.00 0.00 34 1023.2
20260502151606 45 78 4.3 6.1 0.00 0.00 0.00 34 1023.1
20260502151104 45 83 2.6 6.1 0.00 0.00 0.00 34 1022.8
20260502150601 44 68 3.5 6.1 0.00 0.00 0.00 35 1023.0
20260502130446 27 341 0.0 0.0 0.00 0.00 0.00 49 1022.3
20260502123429 30 51 1.7 3.5 0.00 0.00 0.00 48 1022.4
20260502122926 28 349 0.0 0.9 0.00 0.00 0.00 49 1022.3
20260502122422 26 2 0.9 0.9 0.00 0.00 0.00 51 1022.2
20260502121920 25 335 0.0 0.0 0.00 0.00 0.00 50 1022.1
20260502121417 25 339 0.0 0.9 0.00 0.00 0.00 50 1022.4
20260502120915 25 332 0.9 0.9 0.00 0.00 0.00 49 1022.4
20260502120410 26 310 0.9 0.9 0.00 0.00 0.00 48 1022.2
20260502115908 27 328 0.0 0.9 0.00 0.00 0.00 49 1022.1
20260502115405 28 10 0.9 2.6 0.00 0.00 0.00 49 1022.1
20260502114901 29 308 1.7 2.6 0.00 0.00 0.00 47 1022.1
20260502114358 29 319 0.0 0.9 0.00 0.00 0.00 48 1022.1
20260502113855 33 103 2.6 3.5 0.00 0.00 0.00 44 1022.1
20260502113353 31 43 4.3 4.3 0.00 0.00 0.00 45 1022.1
20260502112851 30 32 4.3 4.3 0.00 0.00 0.00 45 1022.3
20260502112348 29 0 2.6 3.5 0.00 0.00 0.00 45 1022.3
20260502111845 30 297 2.6 3.5 0.00 0.00 0.00 45 1022.3
20260502111343 29 344 1.7 2.6 0.00 0.00 0.00 45 1022.3
20260502110840 30 337 0.9 2.6 0.00 0.00 0.00 45 1022.2
20260502110338 31 2 2.6 2.6 0.00 0.00 0.00 45 1022.1
20260502105835 31 340 1.7 2.6 0.00 0.00 0.00 45 1022.2
20260502105332 32 342 0.0 0.0 0.00 0.00 0.00 45 1022.2
20260502104830 31 351 0.0 0.9 0.00 0.00 0.00 45 1022.3
20260502104327 31 350 2.6 2.6 0.00 0.00 0.00 45 1022.2
20260502103824 31 326 0.0 0.9 0.00 0.00 0.00 45 1022.5
20260502103321 33 343 0.0 0.9 0.00 0.00 0.00 43 1022.3
20260502102819 32 334 0.0 0.9 0.00 0.00 0.00 44 1022.4
20260502102315 33 9 0.9 2.6 0.00 0.00 0.00 42 1022.4
20260502101813 33 36 2.6 3.5 0.00 0.00 0.00 42 1022.1
20260502101311 33 62 4.3 6.1 0.00 0.00 0.00 42 1022.3
20260502100809 31 38 1.7 3.5 0.00 0.00 0.00 44 1022.3
20260502100308 30 342 1.7 2.6 0.00 0.00 0.00 44 1022.3
20260502091241 36 6 2.6 3.5 0.00 0.00 0.00 38 1022.2
20260502090738 35 322 0.9 2.6 0.00 0.00 0.00 40 1022.3
20260502090235 37 2 0.9 2.6 0.00 0.00 0.00 38 1022.4
20260502071136 42 355 4.3 4.3 0.00 0.00 0.00 32 1022.6
20260502070634 43 354 3.5 8.7 0.00 0.00 0.00 31 1022.5
20260502070132 44 12 6.1 8.7 0.00 0.00 0.00 31 1022.5
20260502065630 44 24 5.2 8.7 0.00 0.00 0.00 30 1022.5
20260502065127 43 42 4.3 7.0 0.00 0.00 0.00 31 1022.2
20260502064626 43 18 5.2 8.7 0.00 0.00 0.00 30 1022.3
20260502064122 42 22 4.3 7.0 0.00 0.00 0.00 30 1022.3
20260502063620 42 19 3.5 4.3 0.00 0.00 0.00 31 1022.5
20260502063118 43 19 3.5 9.6 0.00 0.00 0.00 30 1022.2
20260502062614 43 349 7.8 8.7 0.00 0.00 0.00 30 1022.2
20260502062112 43 18 4.3 6.1 0.00 0.00 0.00 31 1022.2
20260502061610 42 23 2.6 6.1 0.00 0.00 0.00 33 1022.3
20260502061107 42 359 3.5 4.3 0.00 0.00 0.00 34 1022.1
20260502060602 43 359 1.7 2.6 0.00 0.00 0.00 33 1022.3
20260502060059 42 14 4.3 4.3 0.00 0.00 0.00 34 1022.2
20260502055556 45 30 2.6 3.5 0.00 0.00 0.00 32 1022.3
20260502055055 45 28 2.6 3.5 0.00 0.00 0.00 31 1021.9
20260502054553 45 30 2.6 3.5 0.00 0.00 0.00 31 1022.1
20260502054050 45 31 2.6 4.3 0.00 0.00 0.00 31 1022.2
20260502053547 44 29 2.6 3.5 0.00 0.00 0.00 31 1022.2
20260502053045 46 24 3.5 4.3 0.00 0.00 0.00 30 1022.2
20260502052543 46 12 4.3 6.1 0.00 0.00 0.00 29 1022.2
20260502052041 44 4 4.3 4.3 0.00 0.00 0.00 31 1021.9
20260502051538 43 357 2.6 3.5 0.00 0.00 0.00 32 1022.1
20260502051036 43 16 2.6 3.5 0.00 0.00 0.00 32 1022.1
20260502050532 45 16 3.5 3.5 0.00 0.00 0.00 31 1021.9
20260502050029 45 24 2.6 3.5 0.00 0.00 0.00 31 1021.8
20260502045526 49 15 5.2 6.1 0.00 0.00 0.00 28 1022.1
20260502045023 50 40 3.5 4.3 0.00 0.00 0.00 26 1021.8
20260502044519 51 51 2.6 3.5 0.00 0.00 0.00 25 1021.8
20260502044016 51 63 2.6 3.5 0.00 0.00 0.00 24 1021.9
20260502043514 51 66 2.6 3.5 0.00 0.00 0.00 25 1021.8
20260502043010 51 71 4.3 4.3 0.00 0.00 0.00 25 1021.5
20260502042505 51 97 2.6 3.5 0.00 0.00 0.00 25 1021.6
20260502042003 51 70 2.6 4.3 0.00 0.00 0.00 26 1021.5
20260502041500 51 74 5.2 7.0 0.00 0.00 0.00 24 1021.5
20260502040956 54 57 6.1 7.0 0.00 0.00 0.00 22 1021.4
20260502040453 54 94 3.5 3.5 0.00 0.00 0.00 21 1021.4
20260502035944 54 97 3.5 4.3 0.00 0.00 0.00 21 1021.4
20260502035440 53 96 3.5 3.5 0.00 0.00 0.00 22 1021.2
20260502034938 54 79 4.3 4.3 0.00 0.00 0.00 22 1021.2
20260502034437 53 78 4.3 4.3 0.00 0.00 0.00 22 1021.1
20260502033935 54 97 2.6 2.6 0.00 0.00 0.00 22 1021.1
20260502033432 55 104 3.5 4.3 0.00 0.00 0.00 21 1020.8
20260502032928 56 100 3.5 3.5 0.00 0.00 0.00 22 1020.8
20260502032425 56 93 2.6 3.5 0.00 0.00 0.00 23 1020.9
20260502031922 57 92 3.5 3.5 0.00 0.00 0.00 23 1020.8
20260502031421 57 101 3.5 4.3 0.00 0.00 0.00 23 1020.8
20260502030919 57 100 3.5 4.3 0.00 0.00 0.00 23 1020.5
20260502030417 57 98 4.3 4.3 0.00 0.00 0.00 22 1020.3
20260502025914 57 103 4.3 4.3 0.00 0.00 0.00 22 1020.7
20260502025411 58 91 3.5 4.3 0.00 0.00 0.00 21 1020.5
20260502024909 59 98 3.5 4.3 0.00 0.00 0.00 21 1020.5
20260502024407 61 79 4.3 4.3 0.00 0.00 0.00 20 1020.5
20260502023904 62 84 4.3 4.3 0.00 0.00 0.00 19 1020.3
20260502023402 63 66 3.5 4.3 0.00 0.00 0.00 19 1020.1
20260502022859 63 67 3.5 3.5 0.00 0.00 0.00 18 1020.3
20260502022355 64 75 2.6 3.5 0.00 0.00 0.00 18 1020.1
20260502021853 64 76 2.6 3.5 0.00 0.00 0.00 18 1020.3
20260502021350 64 72 2.6 4.3 0.00 0.00 0.00 18 1020.2
20260502020847 65 76 4.3 4.3 0.00 0.00 0.00 17 1020.2
20260502020344 66 47 3.5 4.3 0.00 0.00 0.00 17 1020.3
20260502015841 66 142 2.6 4.3 0.00 0.00 0.00 17 1020.2
20260502015338 66 71 3.5 6.1 0.00 0.00 0.00 17 1019.9
20260502014836 66 120 4.3 7.0 0.00 0.00 0.00 17 1020.1
20260502014333 66 134 3.5 4.3 0.00 0.00 0.00 17 1020.1
20260502013829 66 347 1.7 6.1 0.00 0.00 0.00 16 1019.9
20260502013324 67 50 3.5 7.0 0.00 0.00 0.00 16 1019.8
20260502012821 67 173 7.8 9.6 0.00 0.00 0.00 16 1019.9
20260502012319 67 136 4.3 4.3 0.00 0.00 0.00 15 1020.1
20260502011816 68 337 0.0 0.9 0.00 0.00 0.00 15 1019.9
20260502011312 67 347 6.1 9.6 0.00 0.00 0.00 16 1020.1
20260502010810 67 211 4.3 7.0 0.00 0.00 0.00 16 1019.9
20260502010306 68 21 5.2 8.7 0.00 0.00 0.00 16 1020.2
20260502005803 67 347 4.3 4.3 0.00 0.00 0.00 16 1019.8